Weather in Chernoye

Russia / Perm Krai     59°40′33″N   56°56′37″E
temp.,
°C
wind,
m/s
gust,
m/s
humid.,
%
clouds,
%
prec.,
mm/h
press.,
hPa
HPBL,
m
31 july, sat
sat3123:00+14ne119893 0.2 100311
02:00+13nnw009887 0.0 100411
05:00+11se119815 0.0 100510
08:00+15sse129694 0.0 1005261
11:00+17s138857 0.1 1005493
14:00+22ssw3462100 0.1 10041337
17:00+22s36668 0.1 1003913
20:00+19s487811 0.1 1002705
1 august, sun
sun123:00+16sse3892100 0.1 1002404
02:00+16ssw2799100 1.2 1001392
05:00+16sw259990 1.3 1002188
08:00+17wsw269751 0.8 1003393
11:00+21wsw49760 2.3 10031203
14:00+22wsw595617 1.2 10031785
17:00+20w59625 1.3 10051211
20:00+18w38755 0.5 1007405
2 august, mon
mon223:00+14w28940 0.5 1008177
02:00+12w249796 0.0 101086
05:00+11sw2297100 0.0 101138
08:00+15ssw2482100 0.0 1012204
11:00+21sw466096 0.0 1011827
14:00+23sw465572 0.0 10101004
17:00+22sw3778100 0.9 1009907
20:00+19sw3892100 1.1 1009280
3 august, tue
tue323:00+17ssw2296100 0.4 101045
02:00+15sw229710 0.0 101123
05:00+15ssw119756 0.0 101111
08:00+17ssw1291100 0.0 1012155
11:00+22ssw2369100 0.0 1012631
14:00+19sse2494100 0.8 1012149
17:00+21se388258 1.1 1011382
20:00+21ese378918 0.1 1009194
4 august, wed
wed423:00+19sse31093100 0.1 1009221
02:00+19sse312885 0.0 1009272
05:00+17sse38947 0.1 1009145
08:00+20sse257812 0.0 1009185
11:00+24ssw3562100 0.0 1010517
14:00+29s354839 0.0 1009870
17:00+30ssw35455 0.0 10091571
20:00+26s117123 0.0 100812